[[{"header":{"parameterUnit":"m.s-1","parameterCategory":1,"la1":30.2991,"la2":30.254,"lo1":-89.0895,"lo2":-89.0444,"dy":0.0017,"dx":0.0017,"nx":28,"ny":28,"refTime":"2025-07-03T21:00:00:Z","depth":0,"parameterNumber":2,"parameterNumberName":"U-component_of_WINDS"},"data":[0,0,0,0,0,0,0,0,0,0,0,0,0,0,0,0,0,0,0,0,0,0,0,0,0,0,0,0,0,0,0,0,0,0,0,0,0,0,0,0,0,0,0,0,0,0,0,0,0,0,0,0,0,0,0,0,0,0,-1.4518,-1.4518,0,-1.4523,-1.4523,-1.4523,-1.4447,-1.4445,-1.4443,-1.4441,-1.4449,-1.4451,-1.4453,0,0,0,0,0,0,0,0,0,0,0,0,0,-1.4447,-1.4449,-1.4518,-1.4518,-1.4519,-1.4523,-1.4523,-1.4523,-1.4448,-1.4445,-1.4443,-1.444,-1.4448,-1.445,-1.4453,0,0,0,0,0,0,0,0,0,0,0,0,0,-1.4468,-1.4449,-1.4518,-1.4481,-1.4478,-1.4523,-1.4523,-1.4523,-1.4448,-1.4445,-1.4442,-1.4439,-1.4447,-1.445,-1.4453,-1.4534,0,0,-1.4463,-1.4464,0,0,0,0,0,0,0,0,-1.4467,-1.447,-1.4487,-1.4484,-1.448,-1.4481,-1.45,-1.4527,-1.4449,-1.446,-1.4441,-1.4438,-1.4462,-1.4464,-1.4472,-1.4535,-1.4535,-1.4463,-1.4465,-1.4467,-1.4467,0,0,0,0,0,0,0,-1.4465,-1.447,-1.452,-1.4487,-1.4483,-1.4465,-1.4465,-1.4505,-1.4478,-1.4459,-1.4453,-1.4454,-1.446,-1.4469,-1.4471,-1.4535,-1.4463,-1.4466,-1.4468,-1.4469,-1.4663,-1.4667,0,0,0,0,0,0,-1.4468,-1.4469,-1.452,-1.452,-1.4466,-1.4469,-1.4469,-1.4484,-1.4478,-1.4474,-1.4457,-1.4451,-1.4465,-1.4468,-1.4471,-1.4564,-1.4466,-1.4469,-1.4471,-1.466,-1.4664,-1.4668,0,0,0,0,0,0,-1.4467,-1.4474,-1.452,-1.4493,-1.4498,-1.4474,-1.4492,-1.4486,-1.4494,-1.4476,-1.4471,-1.4471,-1.4462,-1.4467,-1.4519,-1.4564,-1.4471,-1.4474,-1.4656,-1.4661,-1.4666,-1.4752,0,0,0,0,0,0,-1.4466,-1.4474,-1.4504,-1.4494,-1.4499,-1.4567,-1.4495,-1.4488,-1.45,-1.4492,-1.4488,-1.4484,-1.446,-1.4514,-1.4522,-1.4566,-1.4476,-1.4652,-1.4659,-1.4664,-1.4745,-1.4759,-1.4772,0,0,0,0,0,-1.4463,-1.4529,-1.4506,-1.4512,-1.4536,-1.457,-1.4573,-1.4543,-1.4504,-1.4534,-1.4522,-1.4485,-1.4558,-1.452,-1.4528,-1.4574,-1.4649,-1.4657,-1.4664,-1.4739,-1.4757,-1.4771,0,0,0,0,0,0,-1.4546,-1.4527,-1.4501,-1.4566,-1.457,-1.4557,-1.4594,-1.4562,-1.4578,-1.457,-1.4533,-1.4533,-1.4591,-1.4588,-1.4547,-1.4651,-1.4597,-1.4606,-1.4651,-1.4668,-1.4681,-1.468,-1.4479,0,0,0,0,0,-1.4571,-1.4599,-1.4582,-1.464,-1.4643,-1.4619,-1.4632,-1.4609,-1.4612,-1.4613,-1.4605,-1.4611,-1.4634,-1.4651,-1.4672,-1.4745,-1.4742,-1.478,-1.4793,-1.4804,-1.4812,-1.4849,-1.4866,-1.4692,-1.4692,-1.4692,0,0,-1.4625,-1.4618,-1.4638,-1.4657,-1.4657,-1.4687,-1.4621,-1.4656,-1.4677,-1.4619,-1.4667,-1.4661,-1.4665,-1.4727,-1.4754,-1.4726,-1.486,-1.4814,-1.4822,-1.4825,-1.4859,-1.4875,-1.489,-1.4697,-1.4696,-1.4695,0,0,-1.4737,-1.4735,-1.4782,-1.4784,-1.4785,-1.4768,-1.4779,-1.4771,-1.4765,-1.4812,-1.4768,-1.4794,-1.4837,-1.484,-1.4848,-1.496,-1.4926,-1.4969,-1.5037,-1.5074,-1.5087,-1.5099,-1.5138,-1.5153,-1.4977,-1.4977,-1.4977,0,-1.4803,-1.4846,-1.4812,-1.4849,-1.4858,-1.4805,-1.4853,-1.4857,-1.4865,-1.4873,-1.4841,-1.4892,-1.4891,-1.4953,-1.498,-1.4988,-1.5,-1.4968,-1.5088,-1.51,-1.511,-1.5147,-1.5162,-1.4982,-1.4982,-1.4981,-1.4981,0,-1.4927,-1.4957,-1.4996,-1.5003,-1.5017,-1.506,-1.5033,-1.5051,-1.5026,-1.5013,-1.5061,-1.5057,-1.5076,-1.5089,-1.5066,-1.5148,-1.513,-1.5094,-1.5038,-1.5132,-1.5166,-1.518,-1.4989,-1.4988,-1.4986,-1.4985,0,0,-1.5091,-1.5078,-1.5093,-1.5095,-1.5092,-1.5115,-1.5155,-1.5172,-1.5188,-1.5196,-1.5229,-1.5265,-1.5231,-1.524,-1.5217,-1.5249,-1.5337,-1.5208,-1.5208,-1.5231,-1.5425,-1.5451,-1.5468,-1.5314,-1.5317,-1.5319,-1.5424,0,-1.5199,-1.5266,-1.5236,-1.5306,-1.5333,-1.5283,-1.5318,-1.532,-1.5308,-1.533,-1.5318,-1.5344,-1.5297,-1.5302,-1.5332,-1.532,-1.5375,-1.5312,-1.5344,-1.5346,-1.5343,-1.5486,-1.5514,-1.5614,-1.5437,-1.544,-1.5441,0,-1.5334,-1.5345,-1.5418,-1.5408,-1.5418,-1.545,-1.5463,-1.5484,-1.5486,-1.5475,-1.5484,-1.5453,-1.5492,-1.5437,-1.549,-1.5448,-1.5459,-1.5456,-1.5459,-1.546,-1.5398,-1.549,-1.5645,-1.566,-1.5462,-1.546,-1.5459,0,-1.5445,-1.5478,-1.5525,-1.5529,-1.552,-1.5543,-1.5541,-1.5539,-1.555,-1.5562,-1.5569,-1.5586,-1.5595,-1.5609,-1.5583,-1.5546,-1.564,-1.5583,-1.5632,-1.5632,-1.5653,-1.5652,-1.5811,-1.5663,-1.5662,-1.5662,-1.5662,0,-1.5568,-1.5614,-1.5575,-1.5604,-1.5654,-1.562,-1.567,-1.5662,-1.5661,-1.5688,-1.5646,-1.5673,-1.5638,-1.5661,-1.5642,-1.5688,-1.5693,-1.5685,-1.5679,-1.5688,-1.5689,-1.5694,-1.5686,-1.5666,-1.5665,-1.5664,-1.5664,0,-1.57,-1.5676,-1.5724,-1.571,-1.5708,-1.5745,-1.5734,-1.576,-1.5746,-1.578,-1.5786,-1.5764,-1.5788,-1.5764,-1.5789,-1.5775,-1.5837,-1.5822,-1.5836,-1.5831,-1.5881,-1.5876,-1.6048,-1.6068,-1.5908,-1.591,-1.5911,0,-1.5779,-1.5813,-1.5803,-1.5817,-1.5816,-1.584,-1.5852,-1.5819,-1.5833,-1.5836,-1.5862,-1.5883,-1.5898,-1.594,-1.5926,-1.5944,-1.5928,-1.5987,-1.5931,-1.5938,-1.5927,-1.5925,-1.5928,-1.5999,-1.6,-1.6002,-1.6003,0,-1.5922,-1.5908,-1.5925,-1.5939,-1.5953,-1.5962,-1.5968,-1.5983,-1.5949,-1.5967,-1.5991,-1.6002,-1.6026,-1.6047,-1.606,-1.6058,-1.6025,-1.6021,-1.6033,-1.6042,-1.6048,-1.6044,-1.5866,-1.6017,-1.6016,-1.6015,-1.6014,-1.6014,-1.6029,-1.6056,-1.6053,-1.6073,-1.6074,-1.6081,-1.6104,-1.6092,-1.6111,-1.6126,-1.6107,-1.6136,-1.6136,-1.615,-1.6152,-1.6174,-1.6149,-1.6167,-1.6172,-1.6176,-1.6183,-1.6046,-1.6177,-1.6177,-1.6176,-1.6176,-1.6176,0,-1.6169,-1.6164,-1.6183,-1.6192,-1.6208,-1.6175,-1.6179,-1.6195,-1.6221,-1.6223,-1.6238,-1.6266,-1.6286,-1.6273,-1.629,-1.6311,-1.6296,-1.6316,-1.6314,-1.6313,-1.6205,-1.6192,-1.6328,-1.6328,-1.6328,-1.6328,-1.6328,-1.6328,-1.6243,-1.6287,-1.6272,-1.6316,-1.6311,-1.6338,-1.6344,-1.6349,-1.635,-1.6382,-1.6398,-1.6389,-1.6386,-1.6402,-1.6419,-1.6415,-1.6422,-1.6448,-1.6438,-1.6336,-1.6321,-1.6307,-1.6295,-1.645,-1.645,-1.6545,-1.6545,-1.6546]},{"header":{"parameterUnit":"m.s-1","parameterCategory":1,"la1":30.2991,"la2":30.254,"lo1":-89.0895,"lo2":-89.0444,"dy":0.0017,"dx":0.0017,"nx":28,"ny":28,"refTime":"2025-07-03T21:00:00:Z","depth":0,"parameterNumber":3,"parameterNumberName":"V-component_of_WINDS"},"data":[0,0,0,0,0,0,0,0,0,0,0,0,0,0,0,0,0,0,0,0,0,0,0,0,0,0,0,0,0,0,0,0,0,0,0,0,0,0,0,0,0,0,0,0,0,0,0,0,0,0,0,0,0,0,0,0,0,0,-2.541,-2.541,0,-2.54,-2.54,-2.5399,-2.5355,-2.5354,-2.5353,-2.5352,-2.5341,-2.5342,-2.5342,0,0,0,0,0,0,0,0,0,0,0,0,0,-2.5392,-2.5393,-2.541,-2.541,-2.541,-2.54,-2.54,-2.5399,-2.5355,-2.5354,-2.5353,-2.5351,-2.5341,-2.5342,-2.5342,0,0,0,0,0,0,0,0,0,0,0,0,0,-2.5393,-2.5393,-2.541,-2.5387,-2.5385,-2.54,-2.54,-2.5399,-2.5355,-2.5354,-2.5352,-2.5351,-2.5341,-2.5342,-2.5343,-2.538,0,0,-2.5346,-2.5346,0,0,0,0,0,0,0,0,-2.5393,-2.5393,-2.539,-2.5388,-2.5386,-2.5377,-2.5389,-2.5393,-2.5356,-2.5366,-2.5352,-2.535,-2.5354,-2.5354,-2.5355,-2.5379,-2.5379,-2.5346,-2.5346,-2.5347,-2.5347,0,0,0,0,0,0,0,-2.5393,-2.5394,-2.5406,-2.539,-2.5388,-2.5377,-2.5375,-2.539,-2.5369,-2.5365,-2.5362,-2.5361,-2.5353,-2.5355,-2.5355,-2.5379,-2.5346,-2.5347,-2.5347,-2.5348,-2.5431,-2.5432,0,0,0,0,0,0,-2.5396,-2.5394,-2.5406,-2.5406,-2.5386,-2.5378,-2.5376,-2.5381,-2.5369,-2.5366,-2.5363,-2.5359,-2.5354,-2.5354,-2.5354,-2.5396,-2.5347,-2.5348,-2.5348,-2.5429,-2.5431,-2.5433,0,0,0,0,0,0,-2.5396,-2.5398,-2.5407,-2.5399,-2.5399,-2.538,-2.5386,-2.5382,-2.5384,-2.5367,-2.5363,-2.5368,-2.5352,-2.5353,-2.5373,-2.5395,-2.5348,-2.5349,-2.5427,-2.543,-2.5432,-2.548,0,0,0,0,0,0,-2.5395,-2.5398,-2.5412,-2.54,-2.54,-2.5426,-2.5388,-2.5383,-2.5386,-2.5381,-2.5371,-2.5368,-2.5351,-2.5372,-2.5374,-2.5395,-2.535,-2.5425,-2.5429,-2.5431,-2.5476,-2.5483,-2.549,0,0,0,0,0,-2.5395,-2.5426,-2.5413,-2.5415,-2.5417,-2.5428,-2.5428,-2.5408,-2.5388,-2.5401,-2.539,-2.5368,-2.5392,-2.5375,-2.5377,-2.5398,-2.5424,-2.5428,-2.5431,-2.5473,-2.5482,-2.549,0,0,0,0,0,0,-2.5442,-2.5424,-2.5409,-2.5437,-2.5434,-2.542,-2.5437,-2.5418,-2.5421,-2.5417,-2.5392,-2.539,-2.5414,-2.5408,-2.5389,-2.5433,-2.5404,-2.5409,-2.5436,-2.5444,-2.5451,-2.5451,-2.5351,0,0,0,0,0,-2.5455,-2.5465,-2.5449,-2.5476,-2.5475,-2.5457,-2.546,-2.5445,-2.5441,-2.544,-2.543,-2.5427,-2.5434,-2.5439,-2.5444,-2.5476,-2.5472,-2.5491,-2.5498,-2.5504,-2.5507,-2.5522,-2.553,-2.5445,-2.5445,-2.5445,0,0,-2.5483,-2.5475,-2.5483,-2.5485,-2.5481,-2.5491,-2.5456,-2.5469,-2.5476,-2.5442,-2.546,-2.5453,-2.5448,-2.5474,-2.5485,-2.547,-2.553,-2.5508,-2.5513,-2.5513,-2.5527,-2.5535,-2.5542,-2.5447,-2.5447,-2.5446,0,0,-2.5539,-2.5535,-2.5555,-2.5552,-2.5546,-2.5533,-2.5538,-2.5527,-2.5521,-2.5539,-2.5513,-2.5522,-2.5534,-2.5531,-2.5531,-2.5586,-2.5565,-2.5588,-2.5623,-2.5638,-2.5645,-2.565,-2.5668,-2.5675,-2.5592,-2.5592,-2.5592,0,-2.5575,-2.559,-2.5568,-2.5583,-2.5584,-2.5553,-2.5573,-2.5571,-2.5568,-2.5569,-2.5553,-2.5567,-2.5561,-2.5585,-2.5598,-2.56,-2.5604,-2.5589,-2.5645,-2.5651,-2.5656,-2.5673,-2.568,-2.5595,-2.5595,-2.5594,-2.5594,0,-2.5633,-2.5644,-2.5661,-2.5658,-2.5661,-2.5679,-2.5659,-2.5665,-2.565,-2.5639,-2.5657,-2.565,-2.5652,-2.5657,-2.5643,-2.5679,-2.5669,-2.565,-2.562,-2.5667,-2.5683,-2.5689,-2.5599,-2.5598,-2.5597,-2.5596,0,0,-2.5718,-2.5702,-2.5708,-2.5706,-2.5697,-2.5705,-2.5721,-2.5723,-2.5728,-2.5727,-2.5739,-2.575,-2.5731,-2.5731,-2.5716,-2.5729,-2.5771,-2.5708,-2.5707,-2.5718,-2.5809,-2.5822,-2.583,-2.5758,-2.5759,-2.576,-2.5809,0,-2.577,-2.5796,-2.5776,-2.5805,-2.5814,-2.5785,-2.5799,-2.5794,-2.5785,-2.5791,-2.578,-2.5787,-2.5763,-2.5763,-2.5775,-2.5763,-2.5789,-2.576,-2.5768,-2.5768,-2.5768,-2.5839,-2.5853,-2.59,-2.5815,-2.5816,-2.5816,0,-2.5834,-2.5835,-2.5865,-2.5853,-2.5856,-2.5868,-2.5868,-2.5875,-2.5869,-2.5861,-2.5861,-2.5842,-2.5856,-2.5829,-2.5847,-2.5828,-2.583,-2.5825,-2.5827,-2.5825,-2.5794,-2.5838,-2.5914,-2.592,-2.5826,-2.5825,-2.5825,0,-2.5891,-2.59,-2.5918,-2.5917,-2.5904,-2.5913,-2.5908,-2.5901,-2.5904,-2.5904,-2.5905,-2.5907,-2.5908,-2.591,-2.5892,-2.5873,-2.5912,-2.5883,-2.5905,-2.5905,-2.5913,-2.5913,-2.5989,-2.5918,-2.5918,-2.5917,-2.5917,0,-2.595,-2.5969,-2.5943,-2.5954,-2.5974,-2.5952,-2.5973,-2.5965,-2.5959,-2.5967,-2.5943,-2.5952,-2.5928,-2.5934,-2.592,-2.5937,-2.5938,-2.5931,-2.5927,-2.5933,-2.5933,-2.5933,-2.5928,-2.5919,-2.5919,-2.5918,-2.5918,0,-2.6017,-2.6,-2.6018,-2.6004,-2.6001,-2.6016,-2.6004,-2.6014,-2.6002,-2.6014,-2.6015,-2.5997,-2.6003,-2.5986,-2.5989,-2.598,-2.6003,-2.5995,-2.6005,-2.6002,-2.6024,-2.6022,-2.6102,-2.611,-2.6035,-2.6036,-2.6036,0,-2.6055,-2.6068,-2.6056,-2.606,-2.6056,-2.6063,-2.6065,-2.6044,-2.6047,-2.6041,-2.6051,-2.6055,-2.6057,-2.6068,-2.6055,-2.6057,-2.6048,-2.6076,-2.6048,-2.6052,-2.6046,-2.6045,-2.6045,-2.6081,-2.6082,-2.6083,-2.6083,0,-2.6124,-2.6115,-2.6118,-2.6119,-2.6122,-2.6122,-2.6119,-2.6124,-2.6101,-2.6106,-2.6112,-2.6113,-2.6116,-2.612,-2.6119,-2.6114,-2.6095,-2.6092,-2.6097,-2.6102,-2.6107,-2.6103,-2.6019,-2.609,-2.6089,-2.6089,-2.6089,-2.6088,-2.6176,-2.6186,-2.6178,-2.6183,-2.6179,-2.6178,-2.6185,-2.6175,-2.6179,-2.618,-2.6167,-2.6175,-2.6169,-2.6166,-2.6162,-2.6168,-2.6155,-2.6163,-2.6164,-2.6166,-2.6169,-2.6107,-2.6168,-2.6168,-2.6168,-2.6167,-2.6167,0,-2.6242,-2.6236,-2.624,-2.6238,-2.6241,-2.6223,-2.6219,-2.6223,-2.6231,-2.6226,-2.6228,-2.6234,-2.6238,-2.6225,-2.6227,-2.6234,-2.6225,-2.6235,-2.6233,-2.6232,-2.6181,-2.6176,-2.6242,-2.6242,-2.6242,-2.6242,-2.6242,-2.6242,-2.6277,-2.6293,-2.6283,-2.6296,-2.6289,-2.6297,-2.6296,-2.6294,-2.629,-2.6298,-2.6301,-2.6292,-2.6284,-2.6285,-2.6287,-2.6283,-2.6284,-2.6297,-2.629,-2.6243,-2.6236,-2.6229,-2.6223,-2.6298,-2.6298,-2.634,-2.6341,-2.6341]}]]